Location: Asheville, NC
(35.6000°N, 82.5500°W)
Time: 08:52:01
(UTC-05:00)

Vanguard 2 - Pass Details

Date: 11 February 2018
Orbit: 553 x 2939 km, 32.9° (Epoch: 19 February)

Event Time Altitude Azimuth Distance (km) Brightness Sun altitude
Rises 03:44:57 0° 257° (WSW) 3,022 - -44.2°
Reaches altitude 10° 03:48:44 10° 225° (SW) 2,411 - -43.5°
Maximum altitude 03:50:45 12° 203° (SSW) 2,463 - -43.1°
Drops below altitude 10° 03:53:04 10° 182° (S) 2,830 - -42.6°
Exits shadow 03:56:47 - 161° (SSE) 3,810 11.1 -41.9°
Sets 03:58:40 0° 155° (SSE) 4,389 11.5 -41.5°
